DAL1772 SEQM-SEGU

Flight info

Callsign DAL1772
Flight time 0h 35m
Altitude 24000
Route TEMOX3B TEMOX TEMOX2
Aircraft A332/H-SDE3GHIJ2J3J5M1RVWXY/LB2D1

Departure

Time 2026-04-29 20:45
Airport Mariscal Sucre International Airport (SEQM)

Arrival

Time 2026-04-29 21:20
Airport José Joaquín de Olmedo International Airport (SEGU)
Time Latitude Longitude Altitude Speed Heading
2026-04-29 20:26 -0.12541 -78.35916 7846 ft 0 kts 266°
2026-04-29 20:33 -0.12541 -78.35911 7836 ft 2 kts 264°
2026-04-29 20:33 -0.12540 -78.35894 7843 ft 2 kts 268°
2026-04-29 20:33 -0.12540 -78.35878 7836 ft 2 kts 270°
2026-04-29 20:34 -0.12540 -78.35862 7836 ft 2 kts 269°
2026-04-29 20:34 -0.12539 -78.35845 7836 ft 2 kts 245°
2026-04-29 20:34 -0.12528 -78.35836 7836 ft 1 kts 185°
2026-04-29 20:34 -0.12525 -78.35836 7836 ft 0 kts 182°
2026-04-29 20:35 -0.12526 -78.35836 7836 ft 0 kts 182°
2026-04-29 20:35 -0.12531 -78.35836 7836 ft 1 kts 182°
2026-04-29 20:36 -0.12535 -78.35836 7836 ft 0 kts 182°
2026-04-29 20:37 -0.12536 -78.35836 7836 ft 1 kts 181°
2026-04-29 20:37 -0.12545 -78.35836 7846 ft 3 kts 179°
2026-04-29 20:38 -0.12577 -78.35833 7842 ft 6 kts 176°
2026-04-29 20:38 -0.12635 -78.35829 7840 ft 11 kts 176°
2026-04-29 20:38 -0.12685 -78.35810 7837 ft 4 kts 126°
2026-04-29 20:38 -0.12693 -78.35774 7849 ft 8 kts 96°
2026-04-29 20:39 -0.12692 -78.35695 7853 ft 13 kts 88°
2026-04-29 20:39 -0.12697 -78.35628 7863 ft 7 kts 115°
2026-04-29 20:39 -0.12743 -78.35602 7867 ft 10 kts 172°
2026-04-29 20:39 -0.12829 -78.35596 7871 ft 15 kts 178°
2026-04-29 20:40 -0.12953 -78.35590 7875 ft 20 kts 178°
2026-04-29 20:40 -0.13087 -78.35585 7881 ft 12 kts 178°
2026-04-29 20:40 -0.13176 -78.35581 7885 ft 14 kts 178°
2026-04-29 20:40 -0.13288 -78.35577 7888 ft 18 kts 177°
2026-04-29 20:41 -0.13423 -78.35572 7890 ft 21 kts 178°
2026-04-29 20:41 -0.13562 -78.35566 7894 ft 20 kts 176°
2026-04-29 20:41 -0.13701 -78.35559 7899 ft 20 kts 178°
2026-04-29 20:41 -0.13847 -78.35554 7906 ft 22 kts 178°
2026-04-29 20:42 -0.13995 -78.35548 7912 ft 21 kts 176°
2026-04-29 20:42 -0.14126 -78.35541 7920 ft 17 kts 178°
2026-04-29 20:42 -0.14223 -78.35519 7926 ft 12 kts 149°
2026-04-29 20:42 -0.14248 -78.35491 7922 ft 0 kts 112°
2026-04-29 20:43 -0.14252 -78.35467 7919 ft 8 kts 96°
2026-04-29 20:43 -0.14243 -78.35397 7925 ft 11 kts 65°
2026-04-29 20:44 -0.14179 -78.35371 7921 ft 9 kts 358°
2026-04-29 20:44 -0.14171 -78.35371 7922 ft 7 kts 358°
2026-04-29 20:44 -0.13899 -78.35381 7912 ft 71 kts 358°
2026-04-29 20:44 -0.13200 -78.35410 7887 ft 127 kts 358°
2026-04-29 20:45 -0.12154 -78.35453 7937 ft 168 kts 358°
2026-04-29 20:45 -0.10910 -78.35519 8358 ft 188 kts 357°
2026-04-29 20:45 -0.09617 -78.35607 9100 ft 188 kts 359°
2026-04-29 20:45 -0.08309 -78.35677 9836 ft 193 kts 359°
2026-04-29 20:46 -0.06881 -78.35745 10152 ft 218 kts 359°
2026-04-29 20:46 -0.05277 -78.35822 10406 ft 241 kts 359°
2026-04-29 20:46 -0.03515 -78.35955 10619 ft 267 kts 351°
2026-04-29 20:46 -0.01784 -78.36834 10818 ft 297 kts 317°
2026-04-29 20:47 -0.00670 -78.38630 11130 ft 316 kts 288°
2026-04-29 20:47 -0.00543 -78.40849 11449 ft 336 kts 259°
2026-04-29 20:47 -0.01204 -78.43131 11999 ft 347 kts 253°
2026-04-29 20:47 -0.01691 -78.44689 12412 ft 349 kts 255°
2026-04-29 20:48 -0.02474 -78.47825 12972 ft 355 kts 259°
2026-04-29 20:48 -0.02946 -78.50275 13397 ft 362 kts 259°
2026-04-29 20:48 -0.03359 -78.52780 14038 ft 368 kts 260°
2026-04-29 20:48 -0.03740 -78.55327 14725 ft 372 kts 261°
2026-04-29 20:49 -0.04164 -78.57876 15480 ft 373 kts 255°
2026-04-29 20:49 -0.05172 -78.60263 16176 ft 373 kts 234°
2026-04-29 20:49 -0.06852 -78.62238 16800 ft 374 kts 224°
2026-04-29 20:49 -0.08715 -78.64069 17101 ft 376 kts 221°
2026-04-29 20:50 -0.09967 -78.65269 17156 ft 377 kts 221°
2026-04-29 20:50 -0.11865 -78.67092 17160 ft 378 kts 222°
2026-04-29 20:50 -0.14372 -78.69520 17123 ft 379 kts 222°
2026-04-29 20:50 -0.16267 -78.71366 17118 ft 381 kts 223°
2026-04-29 20:51 -0.17549 -78.72615 17131 ft 381 kts 223°
2026-04-29 20:51 -0.19419 -78.74441 17116 ft 380 kts 223°
2026-04-29 20:51 -0.21314 -78.76294 17120 ft 380 kts 222°
2026-04-29 20:51 -0.23205 -78.78146 17121 ft 381 kts 223°
2026-04-29 20:52 -0.25097 -78.79999 17122 ft 381 kts 222°
2026-04-29 20:52 -0.27000 -78.81863 17125 ft 381 kts 222°
2026-04-29 20:52 -0.28874 -78.83698 17129 ft 382 kts 222°
2026-04-29 20:52 -0.30772 -78.85555 17119 ft 381 kts 223°
2026-04-29 20:53 -0.32669 -78.87414 17107 ft 380 kts 222°
2026-04-29 20:53 -0.34556 -78.89263 17105 ft 380 kts 223°
2026-04-29 20:53 -0.36438 -78.91107 17091 ft 378 kts 223°
2026-04-29 20:53 -0.38325 -78.92954 17101 ft 379 kts 223°
2026-04-29 20:54 -0.42107 -78.96658 17102 ft 381 kts 223°
2026-04-29 20:54 -0.43975 -78.98488 17049 ft 381 kts 223°
2026-04-29 20:54 -0.45867 -79.00342 17068 ft 381 kts 222°
2026-04-29 20:55 -0.47760 -79.02197 17066 ft 381 kts 223°
2026-04-29 20:55 -0.49655 -79.04052 17065 ft 381 kts 223°
2026-04-29 20:55 -0.51544 -79.05903 17071 ft 380 kts 223°
2026-04-29 20:55 -0.53436 -79.07756 17059 ft 379 kts 223°
2026-04-29 20:56 -0.55319 -79.09601 17061 ft 379 kts 223°
2026-04-29 20:56 -0.57210 -79.11442 17061 ft 378 kts 221°
2026-04-29 20:56 -0.59299 -79.13026 17073 ft 377 kts 209°
2026-04-29 20:56 -0.61625 -79.14227 17014 ft 376 kts 204°
2026-04-29 20:57 -0.63998 -79.15329 17016 ft 376 kts 203°
2026-04-29 20:57 -0.66381 -79.16423 17028 ft 377 kts 204°
2026-04-29 20:57 -0.68733 -79.17506 17009 ft 376 kts 204°
2026-04-29 20:57 -0.71111 -79.18604 17017 ft 376 kts 204°
2026-04-29 20:58 -0.73484 -79.19704 17028 ft 377 kts 204°
2026-04-29 20:58 -0.75866 -79.20810 17013 ft 376 kts 204°
2026-04-29 20:58 -0.78246 -79.21915 16904 ft 377 kts 203°
2026-04-29 20:58 -0.80623 -79.23019 16653 ft 376 kts 203°
2026-04-29 20:59 -0.82987 -79.24117 16405 ft 374 kts 204°
2026-04-29 20:59 -0.85342 -79.25212 16177 ft 373 kts 203°
2026-04-29 20:59 -0.87691 -79.26303 15931 ft 372 kts 203°
2026-04-29 20:59 -0.90007 -79.27380 15732 ft 370 kts 203°
2026-04-29 21:00 -0.92335 -79.28462 15575 ft 369 kts 203°
2026-04-29 21:00 -0.94669 -79.29547 15472 ft 369 kts 203°
2026-04-29 21:00 -0.96992 -79.30627 15372 ft 368 kts 203°
2026-04-29 21:00 -0.99321 -79.31710 15281 ft 367 kts 203°
2026-04-29 21:01 -1.01643 -79.32789 15196 ft 367 kts 203°
2026-04-29 21:01 -1.03957 -79.33865 15106 ft 367 kts 203°
2026-04-29 21:01 -1.06240 -79.34925 15009 ft 366 kts 203°
2026-04-29 21:01 -1.08546 -79.35997 14906 ft 365 kts 203°
2026-04-29 21:02 -1.10853 -79.37070 14830 ft 365 kts 203°
2026-04-29 21:02 -1.13152 -79.38140 14724 ft 365 kts 203°
2026-04-29 21:02 -1.15455 -79.39211 14631 ft 365 kts 203°
2026-04-29 21:02 -1.17760 -79.40283 14546 ft 365 kts 203°
2026-04-29 21:03 -1.20060 -79.41353 14450 ft 365 kts 203°
2026-04-29 21:03 -1.22361 -79.42423 14373 ft 364 kts 203°
2026-04-29 21:03 -1.24655 -79.43490 14259 ft 363 kts 204°
2026-04-29 21:03 -1.26942 -79.44553 14189 ft 361 kts 204°
2026-04-29 21:04 -1.29219 -79.45612 14123 ft 360 kts 204°
2026-04-29 21:04 -1.31464 -79.46656 14019 ft 360 kts 204°
2026-04-29 21:04 -1.33744 -79.47716 13914 ft 359 kts 204°
2026-04-29 21:04 -1.36010 -79.48770 13793 ft 359 kts 204°
2026-04-29 21:05 -1.38274 -79.49823 13677 ft 358 kts 204°
2026-04-29 21:05 -1.40528 -79.50872 13525 ft 357 kts 204°
2026-04-29 21:05 -1.42784 -79.51921 13305 ft 356 kts 204°
2026-04-29 21:05 -1.45003 -79.52953 12980 ft 353 kts 204°
2026-04-29 21:06 -1.47220 -79.53984 12600 ft 351 kts 204°
2026-04-29 21:06 -1.49395 -79.54997 12237 ft 335 kts 204°
2026-04-29 21:06 -1.51452 -79.55955 11888 ft 317 kts 204°
2026-04-29 21:06 -1.53400 -79.56861 11525 ft 303 kts 204°
2026-04-29 21:07 -1.55291 -79.57740 11032 ft 295 kts 204°
2026-04-29 21:07 -1.57131 -79.58595 10632 ft 287 kts 204°
2026-04-29 21:07 -1.58872 -79.59405 10465 ft 271 kts 205°
2026-04-29 21:07 -1.60589 -79.60203 10110 ft 268 kts 205°
2026-04-29 21:08 -1.62254 -79.60977 9741 ft 266 kts 205°
2026-04-29 21:08 -1.63929 -79.61755 9447 ft 262 kts 205°
2026-04-29 21:08 -1.65536 -79.62502 9282 ft 248 kts 205°
2026-04-29 21:08 -1.67065 -79.63213 9035 ft 237 kts 205°
2026-04-29 21:09 -1.68542 -79.63899 8703 ft 233 kts 205°
2026-04-29 21:09 -1.69999 -79.64576 8346 ft 229 kts 205°
2026-04-29 21:09 -1.71435 -79.65244 7961 ft 227 kts 205°
2026-04-29 21:09 -1.72868 -79.65911 7552 ft 226 kts 205°
2026-04-29 21:10 -1.74295 -79.66575 7130 ft 226 kts 205°
2026-04-29 21:10 -1.75704 -79.67230 6734 ft 226 kts 205°
2026-04-29 21:10 -1.77125 -79.67891 6362 ft 223 kts 205°
2026-04-29 21:10 -1.78520 -79.68539 5986 ft 218 kts 205°
2026-04-29 21:11 -1.79880 -79.69171 5619 ft 212 kts 205°
2026-04-29 21:11 -1.81190 -79.69780 5334 ft 203 kts 206°
2026-04-29 21:11 -1.82456 -79.70369 5045 ft 198 kts 206°
2026-04-29 21:11 -1.83704 -79.70949 4733 ft 197 kts 206°
2026-04-29 21:12 -1.84949 -79.71529 4450 ft 197 kts 206°
2026-04-29 21:12 -1.86176 -79.72099 4202 ft 197 kts 206°
2026-04-29 21:12 -1.87411 -79.72674 4011 ft 195 kts 205°
2026-04-29 21:12 -1.88704 -79.73094 3884 ft 195 kts 196°
2026-04-29 21:13 -1.89963 -79.73528 3764 ft 189 kts 203°
2026-04-29 21:13 -1.91133 -79.74104 3653 ft 185 kts 210°
2026-04-29 21:13 -1.92252 -79.74743 3538 ft 185 kts 211°
2026-04-29 21:13 -1.93363 -79.75387 3526 ft 184 kts 211°
2026-04-29 21:14 -1.94472 -79.76033 3525 ft 185 kts 211°
2026-04-29 21:14 -1.95570 -79.76674 3495 ft 174 kts 211°
2026-04-29 21:14 -1.96519 -79.77228 3492 ft 148 kts 211°
2026-04-29 21:14 -1.97376 -79.77727 3503 ft 140 kts 211°
2026-04-29 21:15 -1.98218 -79.78217 3503 ft 140 kts 211°
2026-04-29 21:15 -1.99068 -79.78709 3453 ft 142 kts 211°
2026-04-29 21:15 -1.99924 -79.79203 3306 ft 142 kts 211°
2026-04-29 21:15 -2.00778 -79.79697 3099 ft 141 kts 211°
2026-04-29 21:16 -2.01627 -79.80188 2903 ft 141 kts 210°
2026-04-29 21:16 -2.02474 -79.80679 2721 ft 140 kts 211°
2026-04-29 21:16 -2.03316 -79.81167 2534 ft 140 kts 211°
2026-04-29 21:16 -2.04145 -79.81647 2351 ft 139 kts 210°
2026-04-29 21:17 -2.04986 -79.82134 2176 ft 139 kts 210°
2026-04-29 21:17 -2.05835 -79.82625 2082 ft 144 kts 210°
2026-04-29 21:17 -2.06684 -79.83126 1986 ft 139 kts 211°
2026-04-29 21:17 -2.07508 -79.83614 1825 ft 137 kts 210°
2026-04-29 21:18 -2.08324 -79.84084 1631 ft 138 kts 210°
2026-04-29 21:18 -2.09167 -79.84570 1355 ft 140 kts 210°
2026-04-29 21:18 -2.10014 -79.85066 1066 ft 141 kts 211°
2026-04-29 21:18 -2.10857 -79.85563 911 ft 140 kts 211°
2026-04-29 21:19 -2.11708 -79.86053 711 ft 142 kts 209°
2026-04-29 21:19 -2.12566 -79.86548 527 ft 143 kts 210°
2026-04-29 21:19 -2.13411 -79.87032 355 ft 140 kts 209°
2026-04-29 21:19 -2.14231 -79.87506 163 ft 133 kts 209°
2026-04-29 21:20 -2.15042 -79.87958 33 ft 132 kts 210°
2026-04-29 21:20 -2.15731 -79.88357 26 ft 88 kts 210°
2026-04-29 21:20 -2.16087 -79.88563 31 ft 23 kts 210°
2026-04-29 21:20 -2.16130 -79.88587 27 ft 16 kts 210°
2026-04-29 21:21 -2.16271 -79.88667 27 ft 26 kts 210°
2026-04-29 21:21 -2.16340 -79.88762 29 ft 0 kts 287°
2026-04-29 21:21 -2.16325 -79.88820 26 ft 18 kts 284°
2026-04-29 21:21 -2.16293 -79.88891 27 ft 6 kts 298°
2026-04-29 21:22 -2.16273 -79.88923 27 ft 9 kts 301°
2026-04-29 21:22 -2.16263 -79.88939 27 ft 0 kts 301°